CO-66
1 32791U 08021J 14337.83776076 .00004000 00000-0 44595-3 0 989
2 32791 097.6801 024.7988 0013809 351.1325 008.9645 14.87527254357264
RS-30
1 32953U 08025A 14338.78153481 .00000010 00000-0 -13620-7 0 5259
2 32953 082.5024 095.1404 0019548 143.9445 216.2965 12.43053340296457
METEOR-M
1 35865U 09049A 14338.72385384 .00000198 00000-0 10869-3 0 1355
2 35865 098.5280 020.7730 0002196 342.7466 017.3639 14.21960882270571
RS-38
1 35869U 09049E 14338.72453838 .00000135 00000-0 79808-4 0 392
2 35869 098.5219 020.4962 0004292 332.5759 027.5191 14.22250182270619
JUGNU
1 37839U 11058B 14338.24305763 .00000532 00000-0 14226-3 0 7462
2 37839 019.9619 304.2336 0019206 058.1560 068.1193 14.12384607162622
SRMSAT
1 37841U 11058D 14338.41183045 .00000494 00000-0 12767-3 0 7501
2 37841 019.9729 325.9572 0012004 354.2459 160.5689 14.10411898162421
RAX-2
1 37853U 11061D 14338.31425958 .00013053 00000-0 84884-3 0 9796
2 37853 101.7029 089.3392 0208547 283.7565 142.1572 14.92073828168005
AUBIESAT
1 37854U 11061E 14338.53754924 .00014465 00000-0 90707-3 0 9765
2 37854 101.7084 092.1792 0205292 279.2027 140.3107 14.93701841168110
HRBE
1 37855U 11061F 14338.26640873 .00013583 00000-0 86566-3 0 9974
2 37855 101.7087 090.8497 0207839 281.8916 075.9053 14.92834042168028
RS-39
1 38051U 11062C 14288.65876392 .70201582 12497-4 27925-2 0 413
2 38051 051.5964 324.1908 0006422 269.6897 186.8903 16.43533377153081
E-STAR
1 38079U 12006C 14338.88664367 .00319492 31527-4 16389-2 0 881
2 38079 069.4310 249.3348 0186412 102.6535 259.5505 15.60088059149512
GOLIAT
1 38085U 12006J 14338.86645374 .00225693 16009-4 15273-2 0 5987
2 38085 069.4365 262.0055 0231675 108.3494 355.5086 15.46504479149182
HORYU-2
1 38340U 12025D 14338.40864725 .00003693 00000-0 57833-3 0 365
2 38340 098.2873 298.7605 0012302 003.2164 356.9120 14.73304880136844
RS-40
1 38735U 12041C 14338.82231633 .00000040 00000-0 21992-3 0 8293
2 38735 082.4743 181.1565 0016518 243.8267 116.1117 12.42564597106770
PROITERES
1 38756U 12047B 14338.78990620 .00002030 00000-0 30693-3 0 4672
2 38756 098.2234 069.8730 0012121 194.2616 165.8251 14.75345854120331
BEESAT-3
1 39134U 13015E 14337.35199170 .00016811 00000-0 10789-2 0 7827
2 39134 064.8745 322.2658 0036033 280.5900 079.1163 15.08072734 89127
BEESAT-2
1 39136U 13015G 14337.36701748 .00014519 00000-0 95894-3 0 7622
2 39136 064.8750 323.3197 0036343 280.5216 079.1811 15.07081431 89111
LO-75
1 39382U 13064C 14295.69194059 .07301741 00000-0 36367-2 0 4875
2 39382 040.4713 030.2705 0002289 341.7175 018.4586 16.19795749470823
ZACUBE-1
1 39417U 13066B 14337.85309216 .00003361 00000-0 44899-3 0 4807
2 39417 097.7582 042.5359 0062470 053.3164 307.3766 14.78820547 55764
TRITON-1
1 39427U 13066M 14337.43413515 .00002276 00000-0 38279-3 0 3314
2 39427 097.7450 034.4840 0118370 072.0109 289.3955 14.65956026 55185
DELFIN3XT
1 39428U 13066N 14338.06200925 .00004184 00000-0 71287-3 0 3354
2 39428 097.7445 033.8081 0127910 073.4290 288.0917 14.64228989 55189
GOMX-1
1 39430U 13066Q 14338.82354872 .00002572 00000-0 48817-3 0 430
2 39430 097.7391 030.7556 0156539 081.6503 280.2395 14.57387978 55069
MO-76
1 39436U 13066W 14337.68145002 .00029279 00000-0 25860-2 0 4240
2 39436 097.7653 049.0720 0023699 048.3140 312.0104 14.96087985 56150
LO-74
1 39440U 13066AA 14337.44678328 .00002913 00000-0 42892-3 0 3285
2 39440 097.7538 039.1142 0084405 060.5180 300.4415 14.73710065 55508
PUCPSAT-1
1 39442U 13066AC 14338.26960268 .00005596 00000-0 62104-3 0 3283
2 39442 097.7646 047.7020 0034895 047.9814 312.4363 14.87180316 54881
SHINAISAT
1 39572U 14009A 14328.13084988 .28848087 76253-5 66603-3 0 4474
2 39572 064.9728 197.0096 0013534 259.7861 100.1802 16.45181032 42403
TEIKYOSAT
1 39576U 14009E 14297.85867254 .09345816 76764-5 25176-3 0 4374
2 39576 064.9818 300.5833 0008491 317.3597 044.3862 16.45008906 37698
CO-77
1 39577U 14009F 14244.78324653 .10543803 76292-5 32273-3 0 3795
2 39577 064.9920 123.7668 0014904 269.7208 091.1897 16.43552757 29380
SPROUT
1 39770U 14029E 14338.11991706 .00003161 00000-0 39377-3 0 2115
2 39770 097.8733 072.7198 0011260 117.3431 242.8907 14.83133737 28719
POPSAT-HIP1
1 40028U 14033U 14338.72108346 .00004556 00000-0 52795-3 0 5161
2 40028 097.9700 233.6682 0015899 095.9949 264.3082 14.85876582 24897
EO-80
1 40032U 14033Y 14338.68016826 .00004344 00000-0 50712-3 0 5007
2 40032 097.9667 233.4852 0013727 091.5005 268.7802 14.85623259 24893
VELOX-1
1 40057U 14034E 14338.75649490 .00004556 00000-0 68840-3 0 5053
2 40057 098.2373 048.6367 0012365 137.1250 223.0920 14.74730815 23216
DAURIA DX 1
1 40071U 14037C 14338.77446716 .00002127 00000-0 28943-3 0 4770
2 40071 098.3838 037.0046 0009419 138.0245 222.1686 14.79865065 22034
UKUBE-1
1 40074U 14037F 14338.74258611 .00004481 00000-0 58411-3 0 4784
2 40074 098.3848 037.2271 0005574 143.8304 216.3291 14.81097360 22044
CHASQUI-1
1 40117U 98067ET 14338.86633039 .00243280 00000-0 16918-2 0 3305
2 40117 051.6409 327.0276 0010634 058.4134 013.9156 15.73046689 16861
HODOYOSHI-1
1 40299U 14070B 14338.87408449 .00008597 00000-0 43329-3 0 926
2 40299 097.4743 057.9309 0014974 090.1536 013.1172 15.17305662 4322
CHUBUSAT-1
1 40300U 14070C 14338.84896854 .00009291 00000-0 49443-3 0 933
2 40300 097.4720 057.8062 0024663 089.6175 017.5801 15.15193657 4316
QSAT-EOS
1 40301U 14070D 14338.76343354 .00016302 00000-0 91820-3 0 990
2 40301 097.4688 057.6015 0036073 088.7235 009.7114 15.12728624 4305
TSUBAME
1 40302U 14070E 14338.85502010 .00011236 00000-0 67011-3 0 926
2 40302 097.4659 057.5825 0046736 089.2209 271.4311 15.10381958 4306
